sat.trackr.live / text

‹ back to catalog

STARLINK-36954

NORAD 68057 · 2026-041T

PAYLOAD ACTIVE UNKNOWN

§ Identity

Operator
Country
US
Launch date
2026-03-02
Launch site
AFETR
Launch vehicle
Mass (kg)
RCS (m²)

Purposes: comms

External: N2YO · Heavens-Above · Gunter

§ Orbital elements

Epoch: 2026-05-25T04:21:55.300320Z

Period
93.85 min
Inclination
53.1581°
Eccentricity
0.0001141
Mean motion
15.34430109 rev/d
Perigee alt
461.8 km
Apogee alt
463.4 km
Semi-major
6,840.8 km
B*
9.7418e-4
RAAN
52.8712°
Arg perigee
79.1716°
Mean anomaly
280.9415°
Rev number
1,312

§ Raw data

STARLINK-369541 68057U 26041T   26145.18189005  .00032713  00000+0  97418-3 0  99962 68057  53.1581  52.8712 0001141  79.1716 280.9415 15.34430109 13120

JSON: /api/v1/satellites/68057 · /tle

For live sub-satellite position, see the globe view (requires WebGL).

§ Visibility from observer

Set your observer location to see the next 7 days of passes ≥ 10°. The values pass through the URL so the page stays shareable.

No JS? Fill the form by hand. The geolocation button needs JavaScript.